"Sample Date","Sample Time","Sample Value","Units","Flow Rate","Sample Interval","Number Channels","Micron Size 0","Counts/Channel 0","Micron Size 1","Counts/Channel 1","Micron Size 2","Counts/Channel 2","Micron Size 3","Counts/Channel 3","Micron Size 4","Counts/Channel 4","Micron Size 5","Counts/Channel 5","Micron Size 6","Counts/Channel 6","Micron Size 7","Counts/Channel 7","Micron Size 8","Counts/Channel 8","Micron Size 9","Counts/Channel 9","Micron Size 10","Counts/Channel 10","Micron Size 11","Counts/Channel 11","Micron Size 12","Counts/Channel 12","Micron Size 13","Counts/Channel 13","Micron Size 14","Counts/Channel 14","Micron Size 15","Counts/Channel 15","Micron Size 16","Counts/Channel 16","Micron Size 17","Counts/Channel 17","Micron Size 18","Counts/Channel 18","Micron Size 19","Counts/Channel 19","Micron Size 20","Counts/Channel 20","Micron Size 21","Counts/Channel 21","Micron Size 22","Counts/Channel 22","Micron Size 23","Counts/Channel 23","Micron Size 24","Counts/Channel 24","Micron Size 25","Counts/Channel 25","Micron Size 26","Counts/Channel 26","Micron Size 27","Counts/Channel 27","Micron Size 28","Counts/Channel 28","Micron Size 29","Counts/Channel 29","Micron Size 30","Counts/Channel 30","Micron Size 31","Counts/Channel 31"
"04/05/08","15:00:00",8120.000,"cc",28305.924,6.00,6,0.100,7653.000,0.200,461.000,0.300,4.000,0.500,2.000,1.000,0,5.000,0
"04/05/08","15:00:06",7875.000,"cc",28307.613,6.00,6,0.100,7426.000,0.200,432.000,0.300,12.000,0.500,4.000,1.000,1.000,5.000,0
"04/05/08","15:00:12",7727.000,"cc",28295.897,6.00,6,0.100,7319.000,0.200,402.000,0.300,4.000,0.500,2.000,1.000,0,5.000,0
"04/05/08","15:00:18",7687.000,"cc",28354.658,6.00,6,0.100,7275.000,0.200,402.000,0.300,8.000,0.500,2.000,1.000,0,5.000,0
"04/05/08","15:00:24",7719.000,"cc",28320.895,6.00,6,0.100,7292.000,0.200,420.000,0.300,6.000,0.500,1.000,1.000,0,5.000,0
"04/05/08","15:00:30",7399.000,"cc",28312.729,6.00,6,0.100,6964.000,0.200,416.000,0.300,18.000,0.500,1.000,1.000,0,5.000,0
"04/05/08","15:00:36",7591.000,"cc",28269.676,6.00,6,0.100,7177.000,0.200,407.000,0.300,6.000,0.500,1.000,1.000,0,5.000,0
"04/05/08","15:00:42",7064.000,"cc",28293.832,6.00,6,0.100,6687.000,0.200,369.000,0.300,6.000,0.500,2.000,1.000,0,5.000,0
"04/05/08","15:00:48",7393.000,"cc",28362.506,6.00,6,0.100,6954.000,0.200,428.000,0.300,10.000,0.500,1.000,1.000,0,5.000,0
"04/05/08","15:00:54",7237.000,"cc",28363.813,6.00,6,0.100,6774.000,0.200,439.000,0.300,18.000,0.500,5.000,1.000,1.000,5.000,0
"04/05/08","15:01:00",6907.000,"cc",28343.621,6.00,6,0.100,6543.000,0.200,358.000,0.300,6.000,0.500,0,1.000,0,5.000,0
"04/05/08","15:01:06",7138.000,"cc",28283.523,6.00,6,0.100,6723.000,0.200,408.000,0.300,6.000,0.500,1.000,1.000,0,5.000,0
"04/05/08","15:01:12",6954.000,"cc",28270.815,6.00,6,0.100,6568.000,0.200,371.000,0.300,11.000,0.500,4.000,1.000,0,5.000,0
"04/05/08","15:01:18",6790.000,"cc",28363.805,6.00,6,0.100,6421.000,0.200,362.000,0.300,4.000,0.500,3.000,1.000,0,5.000,0
"04/05/08","15:01:24",6689.000,"cc",28275.752,6.00,6,0.100,6303.000,0.200,360.000,0.300,16.000,0.500,9.000,1.000,1.000,5.000,0
"04/05/08","15:01:30",6659.000,"cc",28392.260,6.00,6,0.100,6295.000,0.200,332.000,0.300,19.000,0.500,12.000,1.000,1.000,5.000,0
"04/05/08","15:01:36",6455.000,"cc",28280.916,6.00,6,0.100,6127.000,0.200,323.000,0.300,4.000,0.500,1.000,1.000,0,5.000,0
"04/05/08","15:01:42",6370.000,"cc",28278.580,6.00,6,0.100,6033.000,0.200,324.000,0.300,10.000,0.500,2.000,1.000,1.000,5.000,0
"04/05/08","15:01:48",6276.000,"cc",28354.170,6.00,6,0.100,5959.000,0.200,311.000,0.300,5.000,0.500,0,1.000,1.000,5.000,0
"04/05/08","15:01:54",6300.000,"cc",28338.848,6.00,6,0.100,5954.000,0.200,340.000,0.300,4.000,0.500,2.000,1.000,0,5.000,0
"04/05/08","15:02:00",6389.000,"cc",28360.379,6.00,6,0.100,6073.000,0.200,308.000,0.300,6.000,0.500,2.000,1.000,0,5.000,0
"04/05/08","15:02:06",6255.000,"cc",28335.000,6.00,6,0.100,5964.000,0.200,285.000,0.300,5.000,0.500,0,1.000,1.000,5.000,0
"04/05/08","15:02:12",6233.000,"cc",28271.885,6.00,6,0.100,5951.000,0.200,271.000,0.300,7.000,0.500,3.000,1.000,1.000,5.000,0
"04/05/08","15:02:18",6243.000,"cc",28278.055,6.00,6,0.100,5939.000,0.200,296.000,0.300,7.000,0.500,0,1.000,1.000,5.000,0
"04/05/08","15:02:24",6184.000,"cc",28334.994,6.00,6,0.100,5853.000,0.200,324.000,0.300,6.000,0.500,1.000,1.000,0,5.000,0
"04/05/08","15:02:30",6115.000,"cc",28303.613,6.00,6,0.100,5805.000,0.200,299.000,0.300,9.000,0.500,2.000,1.000,0,5.000,0
"04/05/08","15:02:36",6255.000,"cc",28286.551,6.00,6,0.100,5912.000,0.200,328.000,0.300,13.000,0.500,2.000,1.000,0,5.000,0
"04/05/08","15:02:42",6350.000,"cc",28347.113,6.00,6,0.100,6015.000,0.200,326.000,0.300,7.000,0.500,1.000,1.000,1.000,5.000,0
"04/05/08","15:02:48",6167.000,"cc",28372.920,6.00,6,0.100,5856.000,0.200,308.000,0.300,2.000,0.500,1.000,1.000,0,5.000,0
"04/05/08","15:02:54",6372.000,"cc",28332.684,6.00,6,0.100,6065.000,0.200,298.000,0.300,9.000,0.500,0,1.000,0,5.000,0
"04/05/08","15:03:00",6318.000,"cc",28264.066,6.00,6,0.100,5990.000,0.200,319.000,0.300,6.000,0.500,3.000,1.000,0,5.000,0
"04/05/08","15:03:06",6508.000,"cc",28260.371,6.00,6,0.100,6121.000,0.200,373.000,0.300,10.000,0.500,4.000,1.000,0,5.000,0
"04/05/08","15:03:12",6768.000,"cc",28353.926,6.00,6,0.100,6333.000,0.200,429.000,0.300,6.000,0.500,0,1.000,0,5.000,0
"04/05/08","15:03:18",6521.000,"cc",28344.912,6.00,6,0.100,6103.000,0.200,410.000,0.300,8.000,0.500,0,1.000,0,5.000,0
"04/05/08","15:03:24",6685.000,"cc",28259.129,6.00,6,0.100,6271.000,0.200,405.000,0.300,8.000,0.500,1.000,1.000,0,5.000,0
"04/05/08","15:03:30",6681.000,"cc",28324.723,6.00,6,0.100,6294.000,0.200,377.000,0.300,8.000,0.500,2.000,1.000,0,5.000,0
"04/05/08","15:03:36",6785.000,"cc",28325.551,6.00,6,0.100,6371.000,0.200,409.000,0.300,3.000,0.500,2.000,1.000,0,5.000,0
"04/05/08","15:03:42",6517.000,"cc",28286.668,6.00,6,0.100,6147.000,0.200,358.000,0.300,12.000,0.500,0,1.000,0,5.000,0
"04/05/08","15:03:48",6398.000,"cc",28343.836,6.00,6,0.100,6006.000,0.200,384.000,0.300,7.000,0.500,1.000,1.000,0,5.000,0
"04/05/08","15:03:54",6589.000,"cc",28348.805,6.00,6,0.100,6215.000,0.200,362.000,0.300,9.000,0.500,3.000,1.000,0,5.000,0
"04/05/08","15:04:00",6568.000,"cc",28300.971,6.00,6,0.100,6203.000,0.200,356.000,0.300,7.000,0.500,2.000,1.000,0,5.000,0
"04/05/08","15:04:06",6528.000,"cc",28373.945,6.00,6,0.100,6159.000,0.200,360.000,0.300,7.000,0.500,2.000,1.000,0,5.000,0
"04/05/08","15:04:12",6447.000,"cc",28283.992,6.00,6,0.100,6057.000,0.200,383.000,0.300,7.000,0.500,0,1.000,0,5.000,0
"04/05/08","15:04:18",6151.000,"cc",28316.816,6.00,6,0.100,5769.000,0.200,374.000,0.300,7.000,0.500,0,1.000,1.000,5.000,0
"04/05/08","15:04:24",6261.000,"cc",28304.764,6.00,6,0.100,5868.000,0.200,387.000,0.300,6.000,0.500,0,1.000,0,5.000,0
"04/05/08","15:04:30",6406.000,"cc",28267.262,6.00,6,0.100,6044.000,0.200,352.000,0.300,10.000,0.500,0,1.000,0,5.000,0
"04/05/08","15:04:36",6499.000,"cc",28345.533,6.00,6,0.100,6137.000,0.200,359.000,0.300,2.000,0.500,1.000,1.000,0,5.000,0
"04/05/08","15:04:42",6639.000,"cc",28349.400,6.00,6,0.100,6286.000,0.200,347.000,0.300,5.000,0.500,1.000,1.000,0,5.000,0
"04/05/08","15:04:48",6878.000,"cc",28302.373,6.00,6,0.100,6491.000,0.200,381.000,0.300,5.000,0.500,1.000,1.000,0,5.000,0
"04/05/08","15:04:54",7014.000,"cc",28277.836,6.00,6,0.100,6625.000,0.200,377.000,0.300,11.000,0.500,1.000,1.000,0,5.000,0
"04/05/08","15:05:00",6845.000,"cc",28312.930,6.00,6,0.100,6443.000,0.200,396.000,0.300,6.000,0.500,0,1.000,0,5.000,0
"04/05/08","15:05:06",6869.000,"cc",28305.967,6.00,6,0.100,6490.000,0.200,371.000,0.300,6.000,0.500,2.000,1.000,0,5.000,0
"04/05/08","15:05:12",6859.000,"cc",28322.799,6.00,6,0.100,6422.000,0.200,428.000,0.300,7.000,0.500,2.000,1.000,0,5.000,0
"04/05/08","15:05:18",6538.000,"cc",28329.662,6.00,6,0.100,6177.000,0.200,350.000,0.300,9.000,0.500,2.000,1.000,0,5.000,0
"04/05/08","15:05:24",6771.000,"cc",28315.652,6.00,6,0.100,6335.000,0.200,423.000,0.300,11.000,0.500,2.000,1.000,0,5.000,0
"04/05/08","15:05:30",6779.000,"cc",28319.190,6.00,6,0.100,6361.000,0.200,409.000,0.300,8.000,0.500,1.000,1.000,0,5.000,0
"04/05/08","15:05:36",6656.000,"cc",28372.500,6.00,6,0.100,6283.000,0.200,369.000,0.300,4.000,0.500,0,1.000,0,5.000,0
"04/05/08","15:05:42",6530.000,"cc",28340.213,6.00,6,0.100,6178.000,0.200,348.000,0.300,3.000,0.500,0,1.000,1.000,5.000,0
"04/05/08","15:05:48",6835.000,"cc",28299.725,6.00,6,0.100,6470.000,0.200,357.000,0.300,7.000,0.500,1.000,1.000,0,5.000,0
"04/05/08","15:05:54",6830.000,"cc",28314.119,6.00,6,0.100,6439.000,0.200,384.000,0.300,6.000,0.500,1.000,1.000,0,5.000,0
"04/05/08","15:06:00",6808.000,"cc",28340.512,6.00,6,0.100,6389.000,0.200,412.000,0.300,6.000,0.500,1.000,1.000,0,5.000,0
"04/05/08","15:06:06",6886.000,"cc",28271.676,6.00,6,0.100,6478.000,0.200,404.000,0.300,3.000,0.500,1.000,1.000,0,5.000,0
"04/05/08","15:06:12",6851.000,"cc",28292.613,6.00,6,0.100,6439.000,0.200,409.000,0.300,2.000,0.500,1.000,1.000,0,5.000,0
"04/05/08","15:06:18",6715.000,"cc",28342.938,6.00,6,0.100,6325.000,0.200,382.000,0.300,7.000,0.500,1.000,1.000,0,5.000,0
"04/05/08","15:06:24",6671.000,"cc",28289.041,6.00,6,0.100,6259.000,0.200,401.000,0.300,9.000,0.500,1.000,1.000,1.000,5.000,0
"04/05/08","15:06:30",6755.000,"cc",28276.191,6.00,6,0.100,6319.000,0.200,428.000,0.300,6.000,0.500,1.000,1.000,1.000,5.000,0
"04/05/08","15:06:36",6917.000,"cc",28371.258,6.00,6,0.100,6508.000,0.200,397.000,0.300,9.000,0.500,2.000,1.000,1.000,5.000,0
"04/05/08","15:06:42",6773.000,"cc",28328.356,6.00,6,0.100,6425.000,0.200,336.000,0.300,7.000,0.500,4.000,1.000,1.000,5.000,0
"04/05/08","15:06:48",6776.000,"cc",28282.934,6.00,6,0.100,6389.000,0.200,375.000,0.300,6.000,0.500,5.000,1.000,1.000,5.000,0
"04/05/08","15:06:54",6651.000,"cc",28343.344,6.00,6,0.100,6320.000,0.200,321.000,0.300,9.000,0.500,1.000,1.000,0,5.000,0
"04/05/08","15:07:00",6472.000,"cc",28352.357,6.00,6,0.100,6125.000,0.200,336.000,0.300,10.000,0.500,1.000,1.000,0,5.000,0
"04/05/08","15:07:06",6504.000,"cc",28265.779,6.00,6,0.100,6170.000,0.200,329.000,0.300,5.000,0.500,0,1.000,0,5.000,0
"04/05/08","15:07:12",6749.000,"cc",28320.281,6.00,6,0.100,6394.000,0.200,345.000,0.300,9.000,0.500,1.000,1.000,0,5.000,0
"04/05/08","15:07:18",6426.000,"cc",28358.008,6.00,6,0.100,6154.000,0.200,266.000,0.300,4.000,0.500,2.000,1.000,0,5.000,0
"04/05/08","15:07:24",6644.000,"cc",28286.934,6.00,6,0.100,6343.000,0.200,289.000,0.300,8.000,0.500,3.000,1.000,1.000,5.000,0
"04/05/08","15:07:30",6550.000,"cc",28307.738,6.00,6,0.100,6272.000,0.200,272.000,0.300,4.000,0.500,1.000,1.000,1.000,5.000,0
"04/05/08","15:07:36",6349.000,"cc",28259.033,6.00,6,0.100,6060.000,0.200,275.000,0.300,6.000,0.500,7.000,1.000,1.000,5.000,0
"04/05/08","15:07:42",6549.000,"cc",28374.594,6.00,6,0.100,6256.000,0.200,284.000,0.300,9.000,0.500,0,1.000,0,5.000,0
"04/05/08","15:07:48",6368.000,"cc",28310.377,6.00,6,0.100,6070.000,0.200,291.000,0.300,7.000,0.500,0,1.000,0,5.000,0
"04/05/08","15:07:54",6135.000,"cc",28379.565,6.00,6,0.100,5822.000,0.200,304.000,0.300,8.000,0.500,0,1.000,1.000,5.000,0
"04/05/08","15:08:00",6182.000,"cc",28264.147,6.00,6,0.100,5909.000,0.200,264.000,0.300,4.000,0.500,5.000,1.000,0,5.000,0
"04/05/08","15:08:06",6182.000,"cc",28331.902,6.00,6,0.100,5901.000,0.200,274.000,0.300,5.000,0.500,1.000,1.000,1.000,5.000,0
"04/05/08","15:08:12",6360.000,"cc",28280.381,6.00,6,0.100,6084.000,0.200,268.000,0.300,7.000,0.500,1.000,1.000,0,5.000,0
"04/05/08","15:08:18",6179.000,"cc",28301.543,6.00,6,0.100,5908.000,0.200,263.000,0.300,7.000,0.500,1.000,1.000,0,5.000,0
"04/05/08","15:08:24",6275.000,"cc",28355.527,6.00,6,0.100,5995.000,0.200,264.000,0.300,8.000,0.500,7.000,1.000,1.000,5.000,0
"04/05/08","15:08:30",6371.000,"cc",28324.359,6.00,6,0.100,6072.000,0.200,289.000,0.300,5.000,0.500,5.000,1.000,0,5.000,0
"04/05/08","15:08:36",6050.000,"cc",28310.258,6.00,6,0.100,5777.000,0.200,262.000,0.300,8.000,0.500,2.000,1.000,1.000,5.000,0
"04/05/08","15:08:42",6092.000,"cc",28265.326,6.00,6,0.100,5793.000,0.200,281.000,0.300,15.000,0.500,3.000,1.000,0,5.000,0
"04/05/08","15:08:48",6160.000,"cc",28303.307,6.00,6,0.100,5903.000,0.200,245.000,0.300,11.000,0.500,1.000,1.000,0,5.000,0
"04/05/08","15:08:54",6151.000,"cc",28289.916,6.00,6,0.100,5871.000,0.200,263.000,0.300,14.000,0.500,2.000,1.000,1.000,5.000,0
"04/05/08","15:09:00",6196.000,"cc",28383.619,6.00,6,0.100,5931.000,0.200,248.000,0.300,8.000,0.500,9.000,1.000,0,5.000,0
"04/05/08","15:09:06",6046.000,"cc",28302.283,6.00,6,0.100,5764.000,0.200,258.000,0.300,16.000,0.500,6.000,1.000,2.000,5.000,0
"04/05/08","15:09:12",6106.000,"cc",28308.637,6.00,6,0.100,5817.000,0.200,275.000,0.300,11.000,0.500,1.000,1.000,2.000,5.000,0
"04/05/08","15:09:18",6313.000,"cc",28324.447,6.00,6,0.100,6046.000,0.200,255.000,0.300,8.000,0.500,2.000,1.000,2.000,5.000,0
"04/05/08","15:09:24",6066.000,"cc",28362.416,6.00,6,0.100,5796.000,0.200,261.000,0.300,8.000,0.500,1.000,1.000,0,5.000,0
"04/05/08","15:09:30",6035.000,"cc",28258.990,6.00,6,0.100,5766.000,0.200,259.000,0.300,8.000,0.500,2.000,1.000,0,5.000,0
"04/05/08","15:09:36",6014.000,"cc",28344.752,6.00,6,0.100,5768.000,0.200,231.000,0.300,10.000,0.500,4.000,1.000,1.000,5.000,0
"04/05/08","15:09:42",5925.000,"cc",28330.371,6.00,6,0.100,5657.000,0.200,255.000,0.300,10.000,0.500,3.000,1.000,0,5.000,0
"04/05/08","15:09:48",6037.000,"cc",28291.822,6.00,6,0.100,5793.000,0.200,226.000,0.300,14.000,0.500,3.000,1.000,1.000,5.000,0
"04/05/08","15:09:54",6194.000,"cc",28315.086,6.00,6,0.100,5902.000,0.200,277.000,0.300,12.000,0.500,3.000,1.000,0,5.000,0
"04/05/08","15:10:00",5986.000,"cc",28280.973,6.00,6,0.100,5718.000,0.200,257.000,0.300,8.000,0.500,3.000,1.000,0,5.000,0
"04/05/08","15:10:06",5929.000,"cc",28305.707,6.00,6,0.100,5664.000,0.200,255.000,0.300,5.000,0.500,4.000,1.000,1.000,5.000,0
"04/05/08","15:10:12",6141.000,"cc",28382.381,6.00,6,0.100,5887.000,0.200,244.000,0.300,7.000,0.500,3.000,1.000,0,5.000,0
"04/05/08","15:10:18",6115.000,"cc",28391.463,6.00,6,0.100,5824.000,0.200,269.000,0.300,14.000,0.500,6.000,1.000,2.000,5.000,0
"04/05/08","15:10:24",5910.000,"cc",28263.471,6.00,6,0.100,5651.000,0.200,240.000,0.300,13.000,0.500,5.000,1.000,1.000,5.000,0
"04/05/08","15:10:30",5950.000,"cc",28260.244,6.00,6,0.100,5670.000,0.200,259.000,0.300,8.000,0.500,10.000,1.000,3.000,5.000,0
"04/05/08","15:10:36",6161.000,"cc",28347.303,6.00,6,0.100,5866.000,0.200,278.000,0.300,8.000,0.500,8.000,1.000,1.000,5.000,0
"04/05/08","15:10:42",5884.000,"cc",28366.033,6.00,6,0.100,5599.000,0.200,272.000,0.300,6.000,0.500,7.000,1.000,0,5.000,0
"04/05/08","15:10:48",5833.000,"cc",28239.998,6.00,6,0.100,5576.000,0.200,243.000,0.300,12.000,0.500,2.000,1.000,0,5.000,0
"04/05/08","15:10:54",6006.000,"cc",28349.207,6.00,6,0.100,5714.000,0.200,277.000,0.300,10.000,0.500,5.000,1.000,0,5.000,0
"04/05/08","15:11:00",5916.000,"cc",28329.795,6.00,6,0.100,5637.000,0.200,268.000,0.300,9.000,0.500,2.000,1.000,0,5.000,0
"04/05/08","15:11:06",6045.000,"cc",28362.867,6.00,6,0.100,5755.000,0.200,276.000,0.300,12.000,0.500,2.000,1.000,0,5.000,0
"04/05/08","15:11:12",6041.000,"cc",28282.606,6.00,6,0.100,5722.000,0.200,312.000,0.300,6.000,0.500,1.000,1.000,0,5.000,0
"04/05/08","15:11:18",5953.000,"cc",28255.553,6.00,6,0.100,5668.000,0.200,274.000,0.300,10.000,0.500,1.000,1.000,0,5.000,0
"04/05/08","15:11:24",5791.000,"cc",28373.113,6.00,6,0.100,5513.000,0.200,268.000,0.300,9.000,0.500,0,1.000,1.000,5.000,0
"04/05/08","15:11:30",5701.000,"cc",28325.023,6.00,6,0.100,5463.000,0.200,232.000,0.300,3.000,0.500,1.000,1.000,2.000,5.000,0
"04/05/08","15:11:36",5813.000,"cc",28298.131,6.00,6,0.100,5568.000,0.200,233.000,0.300,7.000,0.500,5.000,1.000,0,5.000,0
"04/05/08","15:11:42",5661.000,"cc",28296.820,6.00,6,0.100,5439.000,0.200,215.000,0.300,5.000,0.500,2.000,1.000,0,5.000,0
"04/05/08","15:11:48",5789.000,"cc",28322.906,6.00,6,0.100,5514.000,0.200,257.000,0.300,12.000,0.500,4.000,1.000,2.000,5.000,0
"04/05/08","15:11:54",5787.000,"cc",28351.717,6.00,6,0.100,5466.000,0.200,294.000,0.300,17.000,0.500,7.000,1.000,3.000,5.000,0
"04/05/08","15:12:00",5929.000,"cc",28287.588,6.00,6,0.100,5655.000,0.200,246.000,0.300,17.000,0.500,9.000,1.000,2.000,5.000,0
"04/05/08","15:12:06",5754.000,"cc",28296.070,6.00,6,0.100,5488.000,0.200,251.000,0.300,10.000,0.500,5.000,1.000,0,5.000,0
"04/05/08","15:12:12",5868.000,"cc",28371.150,6.00,6,0.100,5581.000,0.200,274.000,0.300,7.000,0.500,6.000,1.000,0,5.000,0
"04/05/08","15:12:18",5869.000,"cc",28263.320,6.00,6,0.100,5584.000,0.200,271.000,0.300,11.000,0.500,2.000,1.000,1.000,5.000,0
"04/05/08","15:12:24",5928.000,"cc",28326.732,6.00,6,0.100,5651.000,0.200,269.000,0.300,6.000,0.500,2.000,1.000,0,5.000,0
"04/05/08","15:12:30",5956.000,"cc",28339.766,6.00,6,0.100,5698.000,0.200,246.000,0.300,8.000,0.500,4.000,1.000,0,5.000,0
"04/05/08","15:12:36",5913.000,"cc",28341.619,6.00,6,0.100,5665.000,0.200,238.000,0.300,8.000,0.500,1.000,1.000,1.000,5.000,0
"04/05/08","15:12:42",5903.000,"cc",28285.770,6.00,6,0.100,5629.000,0.200,258.000,0.300,9.000,0.500,4.000,1.000,3.000,5.000,0
"04/05/08","15:12:48",5797.000,"cc",28337.309,6.00,6,0.100,5546.000,0.200,247.000,0.300,4.000,0.500,0,1.000,0,5.000,0
"04/05/08","15:12:54",5746.000,"cc",28301.891,6.00,6,0.100,5480.000,0.200,257.000,0.300,8.000,0.500,0,1.000,1.000,5.000,0
"04/05/08","15:13:00",5871.000,"cc",28362.490,6.00,6,0.100,5572.000,0.200,283.000,0.300,10.000,0.500,5.000,1.000,1.000,5.000,0
"04/05/08","15:13:06",5684.000,"cc",28313.422,6.00,6,0.100,5386.000,0.200,291.000,0.300,4.000,0.500,3.000,1.000,0,5.000,0
"04/05/08","15:13:12",5761.000,"cc",28318.486,6.00,6,0.100,5520.000,0.200,235.000,0.300,5.000,0.500,1.000,1.000,0,5.000,0
"04/05/08","15:13:18",5690.000,"cc",28305.840,6.00,6,0.100,5458.000,0.200,220.000,0.300,6.000,0.500,4.000,1.000,2.000,5.000,0
"04/05/08","15:13:24",6033.000,"cc",28311.424,6.00,6,0.100,5788.000,0.200,229.000,0.300,10.000,0.500,3.000,1.000,3.000,5.000,0
"04/05/08","15:13:30",5637.000,"cc",28296.111,6.00,6,0.100,5395.000,0.200,225.000,0.300,15.000,0.500,1.000,1.000,1.000,5.000,0
"04/05/08","15:13:36",5924.000,"cc",28312.240,6.00,6,0.100,5646.000,0.200,267.000,0.300,9.000,0.500,2.000,1.000,0,5.000,0
"04/05/08","15:13:42",5965.000,"cc",28326.004,6.00,6,0.100,5701.000,0.200,247.000,0.300,12.000,0.500,5.000,1.000,0,5.000,0
"04/05/08","15:13:48",5799.000,"cc",28281.065,6.00,6,0.100,5559.000,0.200,228.000,0.300,8.000,0.500,3.000,1.000,1.000,5.000,0
"04/05/08","15:13:54",5918.000,"cc",28280.924,6.00,6,0.100,5663.000,0.200,245.000,0.300,7.000,0.500,2.000,1.000,1.000,5.000,0
"04/05/08","15:14:00",5960.000,"cc",28401.180,6.00,6,0.100,5687.000,0.200,260.000,0.300,7.000,0.500,6.000,1.000,0,5.000,0
"04/05/08","15:14:06",5908.000,"cc",28359.266,6.00,6,0.100,5618.000,0.200,284.000,0.300,3.000,0.500,2.000,1.000,1.000,5.000,0
"04/05/08","15:14:12",5909.000,"cc",28247.633,6.00,6,0.100,5623.000,0.200,279.000,0.300,4.000,0.500,3.000,1.000,0,5.000,0
"04/05/08","15:14:18",5805.000,"cc",28252.680,6.00,6,0.100,5547.000,0.200,250.000,0.300,5.000,0.500,1.000,1.000,2.000,5.000,0
"04/05/08","15:14:24",5610.000,"cc",28340.756,6.00,6,0.100,5336.000,0.200,266.000,0.300,6.000,0.500,2.000,1.000,0,5.000,0
"04/05/08","15:14:30",5808.000,"cc",28352.432,6.00,6,0.100,5526.000,0.200,273.000,0.300,5.000,0.500,4.000,1.000,0,5.000,0
"04/05/08","15:14:36",5579.000,"cc",28262.623,6.00,6,0.100,5346.000,0.200,223.000,0.300,7.000,0.500,3.000,1.000,0,5.000,0
"04/05/08","15:14:42",5486.000,"cc",28339.838,6.00,6,0.100,5235.000,0.200,238.000,0.300,5.000,0.500,6.000,1.000,2.000,5.000,0
"04/05/08","15:14:48",5491.000,"cc",28344.275,6.00,6,0.100,5232.000,0.200,246.000,0.300,8.000,0.500,5.000,1.000,0,5.000,0
"04/05/08","15:14:54",5328.000,"cc",28319.008,6.00,6,0.100,5086.000,0.200,231.000,0.300,4.000,0.500,4.000,1.000,3.000,5.000,0
"04/05/08","15:15:00",5344.000,"cc",28353.072,6.00,6,0.100,5112.000,0.200,218.000,0.300,8.000,0.500,6.000,1.000,0,5.000,0
"04/05/08","15:15:06",5304.000,"cc",28313.133,6.00,6,0.100,5060.000,0.200,221.000,0.300,12.000,0.500,11.000,1.000,0,5.000,0
"04/05/08","15:15:12",5310.000,"cc",28280.672,6.00,6,0.100,5105.000,0.200,189.000,0.300,9.000,0.500,5.000,1.000,2.000,5.000,0
"04/05/08","15:15:18",5148.000,"cc",28315.623,6.00,6,0.100,4949.000,0.200,178.000,0.300,15.000,0.500,6.000,1.000,0,5.000,0
"04/05/08","15:15:24",4907.000,"cc",28307.828,6.00,6,0.100,4705.000,0.200,176.000,0.300,15.000,0.500,6.000,1.000,5.000,5.000,0
"04/05/08","15:15:30",4878.000,"cc",28317.813,6.00,6,0.100,4683.000,0.200,175.000,0.300,14.000,0.500,6.000,1.000,0,5.000,0
"04/05/08","15:15:36",4899.000,"cc",28329.252,6.00,6,0.100,4626.000,0.200,205.000,0.300,41.000,0.500,26.000,1.000,1.000,5.000,0
"04/05/08","15:15:42",4558.000,"cc",28404.627,6.00,6,0.100,4375.000,0.200,156.000,0.300,12.000,0.500,10.000,1.000,5.000,5.000,0
"04/05/08","15:15:48",4234.000,"cc",28263.471,6.00,6,0.100,4067.000,0.200,143.000,0.300,11.000,0.500,9.000,1.000,4.000,5.000,0
"04/05/08","15:15:54",4180.000,"cc",28260.137,6.00,6,0.100,4030.000,0.200,118.000,0.300,19.000,0.500,11.000,1.000,2.000,5.000,0
"04/05/08","15:16:00",4102.000,"cc",28312.731,6.00,6,0.100,3955.000,0.200,122.000,0.300,11.000,0.500,9.000,1.000,5.000,5.000,0
"04/05/08","15:16:06",4123.000,"cc",28314.615,6.00,6,0.100,3955.000,0.200,129.000,0.300,14.000,0.500,22.000,1.000,3.000,5.000,0
"04/05/08","15:16:12",4061.000,"cc",28324.506,6.00,6,0.100,3928.000,0.200,112.000,0.300,5.000,0.500,12.000,1.000,4.000,5.000,0
"04/05/08","15:16:18",4014.000,"cc",28330.719,6.00,6,0.100,3848.000,0.200,139.000,0.300,19.000,0.500,6.000,1.000,2.000,5.000,0
"04/05/08","15:16:24",4023.000,"cc",28310.522,6.00,6,0.100,3889.000,0.200,116.000,0.300,4.000,0.500,11.000,1.000,3.000,5.000,0
"04/05/08","15:16:30",3869.000,"cc",28336.315,6.00,6,0.100,3728.000,0.200,119.000,0.300,9.000,0.500,11.000,1.000,2.000,5.000,0
"04/05/08","15:16:36",4241.000,"cc",28288.875,6.00,6,0.100,3862.000,0.200,215.000,0.300,88.000,0.500,68.000,1.000,8.000,5.000,0
"04/05/08","15:16:42",4142.000,"cc",28344.188,6.00,6,0.100,4001.000,0.200,114.000,0.300,17.000,0.500,8.000,1.000,2.000,5.000,0
"04/05/08","15:16:48",3942.000,"cc",28292.947,6.00,6,0.100,3839.000,0.200,82.000,0.300,9.000,0.500,9.000,1.000,3.000,5.000,0
"04/05/08","15:16:54",3974.000,"cc",28327.852,6.00,6,0.100,3825.000,0.200,123.000,0.300,13.000,0.500,10.000,1.000,3.000,5.000,0
"04/05/08","15:17:00",3990.000,"cc",28361.873,6.00,6,0.100,3868.000,0.200,103.000,0.300,11.000,0.500,7.000,1.000,1.000,5.000,0
"04/05/08","15:17:06",4040.000,"cc",28313.594,6.00,6,0.100,3939.000,0.200,89.000,0.300,9.000,0.500,2.000,1.000,1.000,5.000,0
"04/05/08","15:17:12",3957.000,"cc",28306.703,6.00,6,0.100,3824.000,0.200,112.000,0.300,10.000,0.500,8.000,1.000,3.000,5.000,0
"04/05/08","15:17:18",3899.000,"cc",28329.244,6.00,6,0.100,3761.000,0.200,119.000,0.300,13.000,0.500,4.000,1.000,2.000,5.000,0
"04/05/08","15:17:24",4193.000,"cc",28309.441,6.00,6,0.100,4036.000,0.200,140.000,0.300,9.000,0.500,7.000,1.000,1.000,5.000,0
"04/05/08","15:17:30",3853.000,"cc",28348.051,6.00,6,0.100,3719.000,0.200,112.000,0.300,14.000,0.500,4.000,1.000,4.000,5.000,0
"04/05/08","15:17:36",4120.000,"cc",28284.057,6.00,6,0.100,3947.000,0.200,142.000,0.300,18.000,0.500,10.000,1.000,3.000,5.000,0
"04/05/08","15:17:42",4316.000,"cc",28362.891,6.00,6,0.100,4118.000,0.200,173.000,0.300,14.000,0.500,10.000,1.000,1.000,5.000,0
"04/05/08","15:17:48",4210.000,"cc",28325.908,6.00,6,0.100,4030.000,0.200,153.000,0.300,18.000,0.500,9.000,1.000,0,5.000,0
"04/05/08","15:17:54",4360.000,"cc",28304.969,6.00,6,0.100,4201.000,0.200,145.000,0.300,7.000,0.500,6.000,1.000,1.000,5.000,0
"04/05/08","15:18:00",4301.000,"cc",28315.826,6.00,6,0.100,4143.000,0.200,141.000,0.300,12.000,0.500,5.000,1.000,0,5.000,0
"04/05/08","15:18:06",4261.000,"cc",28259.391,6.00,6,0.100,4087.000,0.200,156.000,0.300,12.000,0.500,5.000,1.000,1.000,5.000,0